Location: Bouillancy
(49.1149°N, 2.9308°E)
Time: 08:21:36
(UTC+00:00)

SPOT 3 Rocket - Pass Details

Date: 30 September 2020
Orbit: 780 x 794 km, 98.7° (Epoch: 29 October)

Event Time Altitude Azimuth Distance (km) Brightness Sun altitude
Exits shadow 20:38:01 51° 258° (WSW) 982 4.1 -30.3°
Maximum altitude 20:38:03 51° 260° (W) 982 4.2 -30.3°
Drops below altitude 10° 20:43:06 10° 336° (NNW) 2,350 6.7 -31.0°
Sets 20:45:30 0° 342° (NNW) 3,285 7.5 -31.3°
